OBJECT AT, 67289

Orbit data source: Space-Track

You're viewing an Uncataloged Satellite

Recently launched and/or uncataloged satellites may have evolving metadata. Metadata may include but not limited to: Owner, Maufacturer, Bus, Motor, and Mission.

OBJECT AT, 67289 is a satellite in SSO that was launched on Sun, 28 Dec 2025 UTC via a SOYUZ-2-1B launch vehicle from the Vostochny Cosmodrome (VOSTO). Unknown objects in Earth's orbit typically refer to objects detected orbiting the Earth but have not yet been identified or cataloged. These objects could be anything from previously untracked satellites, spent rocket stages, debris from satellite collisions, or even natural meteoroids temporarily captured by Earth's gravity.

Loading next visibility...
Identifier
67289, 2025-313AT
Orbit
SSO
Country
Flag of TBDTBD
Related business
Flag of BYNational Academy of Sciences of Belarus (BY)
Manufacturer
AN Belarus
Mission
Operational Commercial Communications
Bus & Motor
CUBESAT 6U, Unknown motor
Mass
~10 kg wet, ~10 kg dry
Launch date (UTC)
2025-12-28 (6 months ago)
Launch vehicle
SOYUZ-2-1B
Launch site
Vostochny Cosmodrome (VOSTO)
Object type
Unknown
Shape & HBR
Box, 0.1 m
Radar Cross Section
0.035 m², Medium (>0.1 m² and < 1m²)

Expand to show TLE details & history
Last TLE update: 19 hours ago

TLE from 19 hours ago
0 OBJECT AT
1 67289U 25313AT  26171.17933810  .00009900  00000-0  38656-3 0  9994
2 67289  97.3926 246.3277 0008380 353.2132   6.8991 15.26065507 26445
Epoch: 2026-06-20T04:18Z
TLE epoch observation values (Epoch: 2026-06-20T04:18:14.811Z)
Latitude
-0.0001°
Longitude
-86.63167°
Altitude
484.974 km
Speed
7.626 km/s
True Right ascension
16h 25m 18s
True Declination
0° 00' 00"
Sunlit
Object was in full shadow at epoch
Visualization orbit readout
Latitude
Unknown
Longitude
Unknown
Altitude
Unknown
Speed
Unknown
Apparent Right ascension
Unknown
Apparent Declination
Unknown
Sunlit
N/A
Visualization observer readout
Local Sidereal Time
10:17:58
Azimuth
Unknown
Elevation
Unknown
Doppler factor
Unknown
Orbital elements
Apogee altitude
490.296 km
Perigee altitude
478.794 km
Semi-major axis
6,862.682 km
Eccentricity
0.00084
Inclination
97.3926°
RAAN
246.3277°
Arg. of periapsis
353.2132°
True anomaly
6.91065°
Mean anomaly
6.8991°
Eccentric anomaly
6.90487°
Mean motion
3.8177 °/min
Orbital period
94.3 mins
BSTAR
0.00038656
Loading maneuver chart data...
Computing Atmospheric mass density...
Loading historical data...
Loading historical data...
Loading historical data...
Loading historical data...
Loading historical data...
Loading historical data...
Loading historical data...

Documentation

Showing up to 5 results
|